www.pogodaiklimat.ru

Погода и климат >> Архив погоды >> Украина >> Коростень


ПОГОДА в Коростени

  • Прогноз погоды в Коростени
  • Монитор погоды в Коростени

АРХИВ ПОГОДЫ в Коростени

Время (UTC), дата Ветер
(напр.,м/с)
 
Видим.   Явления Облачность Т
(С)
Тd
(С)
f
(%)
Тe
(С)
Тes
(С)
Комфортность P
(гПа)
Po
(гПа)
Тmin
(С)
Tmax
(С)
R
(мм)
R24
(мм)
S
(см)
00 13.06 штиль 0 20 км ясно +18.0 +16.3 90 +18 +18 1016.8 994.9
03 13.06 штиль 0 10 км 3/0
[Ci fib]
+16.6 +15.2 91 +16 +17 1017.2 995.2
06 13.06 В 1 20 км ясно +26.6 +17.8 58 +31 +40 душно 1017.2 996.0 +16.0
09 13.06 СВ 3 20 км 4/3 600 м
[Cu hum Ci fib]
+30.4 +14.5 38 +32 +42 жарко 1017.3 996.3
12 13.06 В 2 20 км 8/6 600 м
[Cu med, cong Ci fib]
+30.2 +14.3 38 +32 +37 жарко 1017.1 996.1
15 13.06 ЮВ 1 20 км 8/3 600 м
[Cu med, cong Ci fib]
+31.3 +14.3 36 +33 +37 жарко 1016.1 995.2
18 13.06 Ю 2 20 км {ливн. осадки} 9/0
[Ac trans Ci fib]
+24.5 +17.1 63 +28 +28 душно 1017.2 995.8 +32.0 0.0
21 13.06 штиль 0 20 км 4/0
[Ci fib]
+20.0 +16.4 80 +22 +22 комфорт 1019.2 997.4
00 14.06 штиль 0 10 км ясно +17.2 +15.3 89 +17 +17 1019.3 997.3
03 14.06 штиль 0 10 км 9/0
[Ac trans Ci fib]
+16.7 +15.3 91 +17 +17 1019.2 997.2
06 14.06 СВ 1 20 км 9/0
[Ci fib]
+23.4 +18.0 72 +29 +37 душно 1019.1 997.6 +16.7
09 14.06 В 2 20 км 3/0
[Ci fib]
+29.7 +16.9 46 +33 +49 душно 1018.8 997.7
12 14.06 Ю 3 20 км 8/4 600 м
[Cu hum Ci fib]
+31.4 +16.9 42 +35 +41 очень
душно
1017.8 996.9
15 14.06 ЮЗ 3 20 км 6/3 600 м
[Cu med, cong Ci fib]
+30.8 +15.1 39 +33 +36 душно 1017.1 996.1
18 14.06 Ю 1 20 км 4/0
[Ci fib]
+26.1 +18.8 64 +31 +31 очень
душно
1017.5 996.2 +31.7
21 14.06 ЮВ 1 20 км 3/0
[Ci fib]
+21.0 +17.8 82 +26 +26 душно 1017.9 996.2
00 15.06 ЮЗ 1 20 км 3/0
[Ci fib]
+17.6 +15.6 88 +19 +19 1018.0 996.1
03 15.06 З 1 20 км ясно +18.5 +16.3 87 +20 +21 1017.5 995.7
06 15.06 СЗ 1 20 км 1/0
[Ci fib]
+24.2 +17.3 65 +28 +37 душно 1017.4 996.0 +16.8
09 15.06 З 2 20 км ясно +28.6 +15.3 44 +31 +48 жарко 1016.7 995.6
12 15.06 З 2 20 км 4/3 600 м
[Cu hum Ci fib]
+30.8 +14.5 37 +33 +43 душно 1014.9 994.0
18 15.06 ЮЗ 2 20 км 3/0
[Ci fib]
+26.4 +20.3 69 +33 +33 очень
душно
1013.7 992.5 +31.5
21 15.06 ЮВ 1 20 км ясно +20.3 +18.1 87 +25 +25 комфорт 1014.3 992.7
00 16.06 СЗ 2 20 км ясно +20.2 +15.3 73 +23 +23 комфорт 1014.4 992.7
03 16.06 штиль 0 20 км ясно +19.2 +15.3 78 +21 +21 комфорт 1014.0 992.3
06 16.06 СВ 2 20 км ясно +24.9 +16.1 58 +28 +36 жарко 1013.9 992.6 +18.2
09 16.06 СВ 2 20 км 10/0
[Cs]
+29.3 +16.4 46 +33 +46 душно 1013.6 992.6
12 16.06 СВ 3 20 км 9/0
[Ac trans Cs]
+29.9 +16.8 45 +33 +43 душно 1013.3 992.4
15 16.06 СВ 1 20 км 8/1 600 м
[Cb calv Ci ing]
+30.7 +16.8 43 +34 +39 очень
душно
1012.4 991.5
18 16.06 штиль 0 20 км 9/0
[Ac cuf Ci fib]
+27.0 +19.5 64 +33 +33 очень
душно
1012.8 991.7 +30.9
21 16.06 С 4 20 км 9/1 600 м
[Cb calv Ac trans]
+21.8 +13.9 61 +25 +25 комфорт 1014.8 993.2
00 17.06 штиль 0 20 км 8/0
[Ci fib]
+18.8 +15.1 79 +20 +20 1014.3 992.5
03 17.06 штиль 0 20 км 6/0
[Ci fib]
+18.5 +14.9 80 +19 +20 1015.0 993.2
06 17.06 штиль 0 20 км 1/0
[Ci fib]
+23.4 +16.9 67 +29 +39 душно 1015.0 993.6 +17.9
09 17.06 ЮЗ 3 20 км 1/0
[Ci fib]
+27.9 +18.8 58 +33 +47 очень
душно
1014.8 993.7
12 17.06 З 3 20 км 3/3 600 м
[Cu hum]
+29.3 +17.0 47 +33 +42 душно 1014.4 993.4
15 17.06 З 4 20 км 9/1 600 м
[Cu hum Ac As Ci fib]
+27.9 +18.6 57 +33 +35 очень
душно
1014.7 993.6
18 17.06 З 3 20 км 9/0
[Ac As Ci fib]
+24.6 +18.1 67 +29 +29 душно 1015.7 994.4 +30.2
00 18.06 З 2 20 км 4/0
[Ci fib]
+15.9 +14.7 93 +16 +16 1018.4 996.3
06 18.06 С 3 20 км 3/3 600 м
[Cu hum]
+20.8 +16.3 75 +25 +29 комфорт 1018.5 996.8 +14.9
12 18.06 З 3 20 км 4/4 600 м
[Cu med, cong]
+25.5 +15.1 53 +28 +36 жарко 1017.4 996.1
18 18.06 С 2 20 км 3/0
[Ci fib]
+23.6 +15.9 62 +27 +27 жарко 1016.9 995.4 +26.9
00 19.06 штиль 0 10 км 3/0
[Ci fib]
+14.8 +13.7 93 +14 +14 1018.2 996.0
06 19.06 С 2 20 км ясно +23.0 +15.2 61 +27 +35 душно 1017.5 996.0 +12.9
12 19.06 С 2 20 км 6/6 600 м
[Cu med, cong]
+27.8 +13.8 42 +30 +36 жарко 1015.8 994.6
18 19.06 В 1 20 км 8/0
[Ac trans Ci fib]
+26.3 +15.9 53 +30 +30 душно 1013.9 992.7 +29.1

 

Местоположение метеостанции Коростень (Житомирская область, Украина): широта 50.95 долгота 28.65 высота над уровнем моря 189 м.

В архиве по умолчанию представлена погода в Коростени за последнюю неделю. Архивные данные за месяц целиком и за предыдущие месяцы, начиная с января 2011 года, Вы можете получить, выбрав интересующий диапазон дат из раскрывающегося списка и нажав кнопку "Ввод!".


*Определитесь, кто Вы:
робот инопланетянин человек

Внимание! Время в таблицах - всемирное. Для получения местного времени необходимо прибавить поправку, которая равна 2 ч.

Смотрите также архив погоды в соседних городах и на ближайших метеорологических станциях:

Погода в Овруче (Житомирская область, Украина) (42 км)
Погода в Тетереве (Киевская область, Украина) (71 км)
Погода в Олевске (Житомирская область, Украина) (74 км)
Погода в Житомире (Житомирская область, Украина) (80 км)
Погода в Новограде-Волынском (Житомирская область, Украина) (82 км)
Погода в Чернобыле (Киевская область, Украина) (116 км)
Погода в Белополе (Винницкая область, Украина) (126 км)
Погода в Мозыре (Гомельская область, Беларусь) (127 км)
Погода в Фастове (Киевская область, Украина) (132 км)
Погода в Вышгороде (Киевская область, Украина) (135 км)

Пояснения к столбцам:

Ветер - указаны скорость ветра в м/с - средняя за 10 мин, порывы в срок и между сроками (в фигурных скобках) и направление, откуда дует ветер: С - северный, СВ - северо-восточный, В - восточный, ЮВ - юго-восточный, Ю - южный, ЮЗ - юго-западный, З - западный, СЗ - северо-западный.
Видимость - горизонтальная дальность видимости в метрах или километрах. При видимости от 1 до 10 км при отсутствии осадков обычно наблюдается дымка, при ухудшении видимости до 1 км и менее - туман. В сухую погоду видимость может ухудшаться дымом, пылью или мглою.
Явления - указаны атмосферные явления, наблюдавшиеся в срок или в последний час перед сроком; фигурными скобками обозначены явления, наблюдавшиеся между сроками (за 1-3 часа до срока); квадратными скобками обозначены град или гололедные отложения с указанием их диаметра в мм.
Облачность - указаны через наклонную черту общая и нижняя облачность в баллах и высота нижней границы облаков в метрах; квадратными скобками обозначены формы облаков: Ci - перистые, Cs - перисто-слоистые, Cc - перисто-кучевые, Ac - высококучевые, As - высокослоистые, Sc - слоисто-кучевые, Ns - слоисто-дождевые, Cu - кучевые, Cb - кучево-дождевые. Подробнее классификацию облаков см. в Атласе облаков (PDF).
T - Температура воздуха - температура, измеренная на высоте 2 м над землей.
Td - Температура точки росы - температура, при понижении до которой содержащийся в воздухе водяной пар достигнет насыщения.
f - Относительная влажность воздуха - влажноcть воздуха, измеренная на высоте 2 м над землей.
Te - Эффективная температура - температура, которую ощущает одетый по сезону человек в тени. Характеристика душности погоды. При расчете учитывается влияние влажности воздуха и скорости ветра на теплоощущения человека.
Tes - Эффективная температура на солнце - температура, которую ощущает человек, с поправкой на солнечный нагрев. Характеристика знойности погоды. Зависит от высоты солнца над горизонтом, облачности и скорости ветра. Ночью, в пасмурную погоду, а также при ветре 12 м/с и более поправка равна нулю.
P - Атмосферное давление - приведенное к уровню моря атмосферное давление.
Po - Атмосферное давление - измеренное на уровне метеостанции атмосферное давление.
Tmin - Минимальная температура - минимум температуры воздуха на высоте 2 м над землей.
Tmax - Максимальная температура - максимум температуры воздуха на высоте 2 м над землей.
R - Количество осадков - Количество выпавших осадков за период времени, мм. При наведении курсора мыши на число - период времени, за который выпало указанное количество осадков.
R24 - Количество осадков - Количество выпавших осадков за 24 часа, мм.
S - Снежный покров - Высота снежного покрова, см. При наведении курсора мыши на число - состояние снежного покрова и степень покрытия местности в баллах.